Weather in Novopavlovka

Russia / Zabaykalsky Krai     51°13′00″N   109°13′09″E
temp.,
°C
wind,
m/s
gust,
m/s
humid.,
%
clouds,
%
prec.,
mm/h
press.,
hPa
HPBL,
m
25 may, wed
wed2500:00+9nne00430 0.0 102310
03:00+7nnw00500 0.0 102410
06:00+6wnw005561 0.0 102410
09:00+14ssw1136100 0.0 1022285
12:00+21wsw2322100 0.0 10192462
15:00+23w321614 0.0 10163502
18:00+22wsw431715 0.0 10143341
21:00+16w11323 0.0 101411
26 may, thu
thu2600:00+10wsw11430 0.0 101410
03:00+7ssw11530 0.0 101410
06:00+6s00600 0.0 101310
09:00+16ssw23310 0.0 1009363
12:00+23wsw47205 0.0 10051991
15:00+26w571576 0.0 10012971
18:00+26nw681825 0.0 9993433
21:00+20nw611295 0.0 1000887
27 may, fri
fri2700:00+12nw1160100 0.0 100310
03:00+10nw28595 0.0 1004212
06:00+7wnw310730 0.0 1004305
09:00+10nw69445 0.0 10051302
12:00+13nw711263 0.0 10042202
15:00+14nw711210 0.0 10032228
18:00+14nnw710225 0.0 10032604
21:00+10nnw492924 0.0 10041070
28 may, sat
sat2800:00+4nw2145100 0.0 100612
03:00+2w1150100 0.0 100712
06:00+3wnw1148100 0.0 100630
09:00+8nw4634100 0.0 10051293
12:00+12nw57224 0.0 10042333
15:00+14nw6719100 0.0 10023427
18:00+12nnw782493 0.0 10042671
21:00+8nw59344 0.0 10071719
29 may, sun
sun2900:00+5nw3104637 0.0 1009515
03:00+1wnw2856100 0.0 1011216
06:00+3wnw3104787 0.0 1010423
09:00+7nw6834100 0.0 10081497
12:00+11nw572535 0.0 10062335
15:00+14nw6820100 0.0 10042839
18:00+14nw572141 0.0 10042607
21:00+11nw48310 0.0 1005933